Voltar ao catálogo

COSMOS 1275 DEB

AtivoPO
NORAD 12731·DEBRIS·🇷🇺 Russia

Lançado Jun 4, 1981 de Plesetsk Cosmodrome

Loading…

Próximas Passagens (próximas 24 horas)

TLE

AtualizadoSource: Space-Track

Época: Sep 14, 2026, 11:26 UTC

1 12731U 81053BY  26257.47656399  .00000313  00000-0  28256-3 0  9995
2 12731  82.9396 160.9861 0081779 305.9144 177.4269 13.79525534263395

Acompanhe COSMOS 1275 DEB em tempo real com AllMySat

Download on the App Store